Regional Weather Roundup
Issued by NWS

Home | Current Version | Previous Version | Text Only | Print | Product List | Glossary Off
Versions: 1 2 3 4 5 6 7 8 9 10 11 12 13 14 15 16 17 18 19 20 21 22 23 24 25 26 27 28 29 30 31 32 33 34 35 36 37 38 39 40 41 42 43 44 45 46 47 48 49 50

000
ASUS45 KTFX 231610
RWRMT
MONTANA REGIONAL WEATHER ROUNDUP
NATIONAL WEATHER SERVICE GREAT FALLS MT
1000 AM MDT SUN APR 23 2017

NOTE: "FAIR" INDICATES FEW OR NO CLOUDS BELOW 12000 FEET WITH NO
SIGNIFICANT WEATHER AND/OR OBSTRUCTIONS TO VISIBILITY.

MTZ001>007-043-231700-
WEST OF THE DIVIDE

CITY           SKY/WX    TMP DP  RH WIND       PRES   REMARKS
KALISPELL      CLOUDY    49  40  71 S7        29.81F
MISSOULA       LGT RAIN  43  40  89 NW12      29.86F
BUTTE          CLOUDY    47  30  51 VRB5      29.81S
MULLAN PASS    CLOUDY    34  32  92 CALM      29.83S
ANACONDA         N/A     45  34  65 NE5       29.81F
DEER LODGE       N/A     43  37  81 NW3       29.83F
EUREKA           N/A     46  39  76 CALM      29.80F
HAMILTON         N/A     43  43 100 N9        29.85R
LIBBY            N/A     46  39  76 CALM      29.81F
$$

MTZ008-052>055-231700-
SOUTHWEST MONTANA

CITY           SKY/WX    TMP DP  RH WIND       PRES   REMARKS
BOZEMAN        CLOUDY    51  38  60 SE6       29.79F
DILLON         SUNNY     52  31  44 S10       29.79F
W YELLOWSTONE  FLURRIES  32  32 100 CALM      29.92F
ENNIS          MOSUNNY   48  37  66 S23       29.87S
THREE FORKS      N/A     52 -47   1 SW12      29.80F
TWIN BRIDGES     N/A     53  31  43 S15       29.81
$$

MTZ009-010-012-014-046-048-049-054-231700-
EAST SLOPES AND CENTRAL MONTANA

CITY           SKY/WX    TMP DP  RH WIND       PRES   REMARKS
CUT BANK       CLOUDY    41  40  96 SE5       29.79S FOG
GREAT FALLS    LGT RAIN  43  40  89 W8        29.79S
MALMSTROM AFB  LGT RAIN  45  41  87 W9        29.80R
HELENA         CLOUDY    46  39  76 N7        29.78F
AUGUSTA        LGT RAIN  42  42 100 N5        29.79F
BOWMANS CRNR   LGT RAIN  40  38  94 E5        29.77S
CHOTEAU          N/A     41  41 100 N5        29.81F FOG
FAIRFIELD      LGT RAIN  41  40  96 NW7       29.79S
POWER          DRZL/FOG  40  40  98 NW10      29.78S VSB 3/4
RAYNESFORD     PTSUNNY   47  39  72 NW5       29.78R
ULM            DRIZZLE   43  42  97 NW7       29.79R
$$

MTZ011-013-016-021-045-047-050-051-231700-
NORTH CENTRAL MONTANA

CITY           SKY/WX    TMP DP  RH WIND       PRES   REMARKS
HAVRE          CLOUDY    43  38  82 E21       29.79F
LEWISTOWN      MOSUNNY   53  37  54 NE5       29.75F
N BAR RANCH      N/A     54  34  47 VRB5      29.78F
CHINOOK          N/A     39  37  93 E15G23    29.83F WCI  31
DENTON         PTSUNNY   45  42  88 MISG      29.73F
FORT BENTON      N/A    N/A N/A N/A MISG      29.79S
GEYSER         PTSUNNY   46  41  82 NW6       29.76F
GRASS RANGE    CLOUDY    44  41  88 CALM      29.74F
JUDITH GAP       N/A     51  34  52 S8        29.75F
STANFORD         N/A     51  37  57 E5        29.75F
WINIFRED       PTSUNNY   41 N/A N/A E16       29.76F FOG
$$

MTZ017>020-022>027-061-062-231700-
NORTHEAST MONTANA

CITY           SKY/WX    TMP DP  RH WIND       PRES   REMARKS
GLASGOW        CLOUDY    36  31  82 E18       29.88F WCI  26
JORDAN           N/A     41  37  86 SE14      29.83F
SIDNEY         CLOUDY    36  30  79 SE18      29.96F WCI  26
WOLF POINT     CLOUDY    38  32  79 E15       29.93F WCI  29
MALTA          CLOUDY    37  34  87 E20       29.87F WCI  27
PLENTYWOOD       N/A     30  25  80 E15G24    29.99F WCI  19
POPLAR           N/A     34  30  86 E17G23    29.95F WCI  23
SCOBEY           N/A     29  22  75 E13       29.94  WCI  19
$$

MTZ028>42-056>058-231700-
SOUTHCENTRAL AND SOUTHEAST MONTANA

CITY           SKY/WX    TMP DP  RH WIND       PRES   REMARKS
BAKER          CLOUDY    34  33  96 E20       29.88F FOG     WCI  23
BILLINGS       CLOUDY    48  41  76 S7        29.76F
LIVINGSTON     CLOUDY    48  36  63 S24G32    29.79R
MILES CITY     CLOUDY    43  38  82 NE13      29.83F
BIG TIMBER     SUNNY     48  37  66 W15       29.80F
EKALAKA          N/A     42  36  79 E13       29.82F
LAUREL           N/A     48  39  71 CALM      29.78F
ROUNDUP          N/A     52  40  63 S5        29.70F
$$

REGIONAL REPORTS...DAKOTAS

CITY           SKY/WX    TMP DP  RH WIND       PRES   REMARKS
WILLISTON      CLOUDY    31  24  75 SE15      30.01F WCI  20
MINOT          LGT SNOW  29  26  89 E15       30.10S VSB 3/4 WCI  18
DICKINSON      CLOUDY    30  26  85 E20       29.92F WCI  17
BEACH          CLOUDY    32  32 100 E22       29.93F FOG     WCI  19
TIOGA          CLOUDY    28  27  93 E22G30    30.04R WCI  15
WATFORD CITY   CLOUDY    30  28  93 E17G24    29.99S WCI  18
BISMARCK       CLOUDY    37  31  78 E25G31    30.01F WCI  25
GRAND FORKS    CLOUDY    36  24  62 E16       30.20F WCI  26
FARGO          CLOUDY    37  32  82 NE14      30.13F WCI  28
BUFFALO SD       N/A     35  32  88 E16       29.80F WCI  25
RAPID CITY     MOSUNNY   56  38  50 SW5       29.80F
$$

REGIONAL REPORTS...WYOMING/IDAHO/WASHINGTON

CITY           SKY/WX    TMP DP  RH WIND       PRES   REMARKS
GILLETTE       SUNNY     57  34  41 CALM      29.81F
SHERIDAN       SUNNY     54  42  64 N6        29.78F
BUFFALO WY     SUNNY     58  29  33 SE7       29.82F
CODY           MOSUNNY   55  33  43 S12       29.80F
YELLOWSTONE LA   N/A     33  30  88 CALM      29.94F
IDAHO FALLS    CLOUDY    51  37  58 VRB3      29.88F
SALMON         CLOUDY    52  36  54 NE6       29.79S
BOISE          PTSUNNY   52  42  69 W5        29.86S
SPOKANE        PTSUNNY   47  39  74 S17       29.85S
$$

REGIONAL REPORTS...ALBERTA

CITY           SKY/WX    TMP DP  RH WIND       PRES   REMARKS
EDMONTON       LGT SNOW  30  27  86 E13       29.89F WCI  20
CALGARY        CLOUDY    37  36  93 VRB2      29.76F
LETHBRIDGE     CLOUDY    43  39  87 NW8       29.77F
MEDICINE HAT   CLOUDY    45  41  87 NW6       29.79F
WATERTON GATE    N/A     46  32  57 SW10        N/A
MILK RIVER       N/A     45  41  87 S7          N/A
ONEFOUR          N/A     39  37  93 SE12G17     N/A  WCI  32
$$

REGIONAL REPORTS...SASKATCHEWAN

CITY           SKY/WX    TMP DP  RH WIND       PRES   REMARKS
SWIFT CURRENT  CLOUDY    34  30  86 SE21G35   29.87F WCI  22
REGINA         CLOUDY    34  21  60 SE21G28   30.06F WCI  22
SASKATOON      CLOUDY    36  27  69 E17       30.06F WCI  25
CYPRESS HILLS    N/A     32  30  93 SE12        N/A  WCI  23
VAL MARIE        N/A     34  32  93 SE21G32     N/A  WCI  22
ROCKGLEN         N/A     27  25  93 SE17G26     N/A  WCI  14
ASSINIBOIA       N/A     30  28  93 E12         N/A  WCI  21
$$



USA.gov is the U.S. government's official web portal to all federal, state and local government web resources and services.